Galena, Illinois, United States (61036)
Lat: 42.42N, Lon: 90.43W
Wx Zone: ILZ001
Local Info
Past Weather Observations for Today

NOTE: This archive is for the closest National Weather Service station to Galena. Information may differ from the station used for current weather conditions.

Click here for Long-term Archive

Time Weather Temperature Dewpoint Humidity Pressure Winds Precip Visibility
18:26
Overcast
Fog And Mist
46°F / 8°C 46°F / 8°C 100% 29.74 in
(1007 mb)
S 15 mph
(S 24 kph)
- 4SM
18:15
Overcast
Fog And Mist
46°F / 8°C 46°F / 8°C 100% 29.77 in
(1008 mb)
SSE 10.4 mph
(SSE 17 kph)
- 3SM
18:08
Overcast
Fog And Mist
46°F / 8°C 46°F / 8°C 100% 29.77 in
(1008 mb)
SSE 10.4 mph
(SSE 17 kph)
- 2 1/2SM
17:53
Overcast
Fog And Mist
46°F / 8°C 46°F / 8°C 100% 29.77 in
(1008 mb)
SW 8.1 mph
(SW 13 kph)
- 2SM
17:45
Overcast
Fog And Mist
46°F / 8°C 46°F / 8°C 100% 29.77 in
(1008 mb)
SW 8.1 mph
(SW 13 kph)
- 2 1/2SM
17:35
Overcast
Fog And Mist
46°F / 8°C 46°F / 8°C 100% 29.77 in
(1008 mb)
SW 10.4 mph
(SW 17 kph)
- 3SM
17:23
Overcast
Fog And Mist
46°F / 8°C 46°F / 8°C 100% 29.77 in
(1008 mb)
SSE 11.5 mph
(SSE 19 kph)
- 2SM
17:20
Overcast
Fog And Mist
46°F / 8°C 46°F / 8°C 100% 29.77 in
(1008 mb)
S 12.7 mph
(S 20 kph)
- 1 1/2SM
17:10
Overcast
Fog
46°F / 8°C 46°F / 8°C 100% 29.77 in
(1008 mb)
SW 11.5 mph
(SW 19 kph)
- 1/2SM
17:02
Obscured
Fog
46°F / 8°C 46°F / 8°C 100% 29.77 in
(1008 mb)
SSE 11.5 mph
(SSE 19 kph)
- 1/4SM
16:53
Obscured
Fog
46°F / 8°C 46°F / 8°C 100% 29.77 in
(1008 mb)
SSE 11.5 mph
(SSE 19 kph)
- 1/4SM
16:35
Overcast
Fog
46°F / 8°C 46°F / 8°C 100% 29.77 in
(1008 mb)
SSE 12.7 mph
(SSE 20 kph)
- 1/4SM
16:20
Overcast
Fog And Mist
46°F / 8°C N/A N/A 29.77 in
(1008 mb)
S 11.5 mph
(S 19 kph)
- 1 1/4SM
16:01
Overcast
Fog And Mist
46°F / 8°C N/A N/A 29.77 in
(1008 mb)
SSE 11.5 mph
(SSE 19 kph)
- 2 1/2SM
15:53
Overcast
Fog And Mist
46°F / 8°C N/A N/A 29.77 in
(1008 mb)
SSE 13.8 mph
(SSE 22 kph)
- 3SM
15:32
Overcast
Hazy
46°F / 8°C N/A N/A 29.77 in
(1008 mb)
SW 12.7 mph
(SW 20 kph)
- 4SM
15:20
Overcast
Hazy
48°F / 9°C N/A N/A 29.77 in
(1008 mb)
SW 12.7 mph
(SW 20 kph)
- 5SM
15:05
Overcast
Hazy
48°F / 9°C N/A N/A 29.77 in
(1008 mb)
SW 13.8 mph
(SW 22 kph)
- 6SM
14:53
Overcast
Hazy
48°F / 9°C N/A N/A 29.77 in
(1008 mb)
SW 13.8 mph
(SW 22 kph)
- 6SM
13:53
Overcast
48°F / 9°C N/A N/A 29.8 in
(1009 mb)
SW 11.5 mph
(SW 19 kph)
- 7SM
13:21
Mostly Cloudy
Hazy
46°F / 8°C N/A N/A 29.8 in
(1009 mb)
SW 15 mph
(SW 24 kph)
- 6SM
12:53
Overcast
Hazy
45°F / 7°C N/A N/A 29.8 in
(1009 mb)
SW 11.5 mph
(SW 19 kph)
- 4SM
12:36
Overcast
Fog And Mist
45°F / 7°C N/A N/A 29.8 in
(1009 mb)
SW 13.8 mph
(SW 22 kph)
- 3SM
12:31
Overcast
Fog And Mist
45°F / 7°C N/A N/A 29.8 in
(1009 mb)
SW 12.7 mph
(SW 20 kph)
- 2 1/2SM
12:21
Overcast
Fog And Mist
43°F / 6°C N/A N/A 29.83 in
(1010 mb)
SW 13.8 mph
(SW 22 kph)
- 1 1/2SM
12:09
Obscured
Fog
43°F / 6°C N/A N/A 29.83 in
(1010 mb)
SW 13.8 mph
(SW 22 kph)
- 1/2SM
11:59
Obscured
Fog
43°F / 6°C 41°F / 5°C 93% 29.83 in
(1010 mb)
SW 12.7 mph
(SW 20 kph)
- 1/4SM
11:53
Obscured
Fog
41°F / 5°C 41°F / 5°C 100% 29.83 in
(1010 mb)
SW 13.8 mph
(SW 22 kph)
- 1/4SM
10:53
Obscured
Fog
37°F / 3°C 37°F / 3°C 100% 29.86 in
(1011 mb)
SSE 11.5 mph
(SSE 19 kph)
- M1/4SM
09:53
Obscured
Fog
36°F / 2°C 36°F / 2°C 100% 29.89 in
(1012 mb)
S 11.5 mph
(S 19 kph)
- M1/4SM
08:53
Obscured
Fog
34°F / 1°C 34°F / 1°C 100% 29.92 in
(1013 mb)
SSE 8.1 mph
(SSE 13 kph)
- M1/4SM
07:53
Obscured
Fog
34°F / 1°C 34°F / 1°C 100% 29.92 in
(1013 mb)
S 9.2 mph
(S 15 kph)
- M1/4SM
07:24
Obscured
Fog
32°F / 0°C 32°F / 0°C 100% 29.95 in
(1014 mb)
S 10.4 mph
(S 17 kph)
- 1/4SM
06:53
Obscured
Fog
32°F / 0°C 32°F / 0°C 100% 29.95 in
(1014 mb)
S 11.5 mph
(S 19 kph)
- 1/4SM
06:43
Obscured
Fog
32°F / 0°C 32°F / 0°C 100% 29.95 in
(1014 mb)
S 10.4 mph
(S 17 kph)
- 1/4SM
06:34
Obscured
Fog
32°F / 0°C 32°F / 0°C 100% 29.95 in
(1014 mb)
S 10.4 mph
(S 17 kph)
- 1/4SM
06:06
Obscured
Fog
32°F / 0°C 32°F / 0°C 100% 29.95 in
(1014 mb)
SSE 11.5 mph
(SSE 19 kph)
- 1/2SM
05:53
Obscured
Fog
32°F / 0°C 32°F / 0°C 100% 29.95 in
(1014 mb)
SSE 11.5 mph
(SSE 19 kph)
- 1/4SM
05:48
Obscured
Fog
32°F / 0°C 32°F / 0°C 100% 29.95 in
(1014 mb)
SSE 10.4 mph
(SSE 17 kph)
- 1/4SM
04:53
Obscured
Fog
32°F / 0°C 32°F / 0°C 100% 29.98 in
(1015 mb)
SSE 11.5 mph
(SSE 19 kph)
- 1/2SM
04:03
Overcast
Fog And Mist
32°F / 0°C 32°F / 0°C 100% 29.98 in
(1015 mb)
SSE 13.8 mph
(SSE 22 kph)
- 3/4SM
03:53
Overcast
Fog And Mist
32°F / 0°C 32°F / 0°C 100% 29.98 in
(1015 mb)
SSE 13.8 mph
(SSE 22 kph)
- 1SM
03:18
Overcast
Fog And Mist
30°F / -1°C 30°F / -1°C 100% 30.01 in
(1016 mb)
SSE 15 mph
(SSE 24 kph)
- 1 3/4SM
03:09
Overcast
Fog And Mist
30°F / -1°C 30°F / -1°C 100% 30.01 in
(1016 mb)
SSE 13.8 mph
(SSE 22 kph)
- 2SM
02:53
Overcast
Fog And Mist
30°F / -1°C 30°F / -1°C 100% 30.01 in
(1016 mb)
SSE 15 mph
(SSE 24 kph)
- 3SM
02:20
Overcast
Fog And Mist
30°F / -1°C 30°F / -1°C 100% 30.01 in
(1016 mb)
SSE 16.1 mph
(SSE 26 kph)
- 6SM
01:53
Overcast
Fog And Mist
30°F / -1°C 28°F / -2°C 93% 30.04 in
(1017 mb)
SSE 16.1 mph
(SSE 26 kph)
0.01 in
(0.25 mm)
6SM
01:00
Overcast
Unknown Precip
30°F / -1°C 28°F / -2°C 93% 30.04 in
(1017 mb)
S 17.3 mph
(S 28 kph)
0.01 in
(0.25 mm)
4SM
00:53
Overcast
Unknown Precip
30°F / -1°C 28°F / -2°C 93% 30.04 in
(1017 mb)
S 19.6 mph
(S 32 kph)
0.04 in
(1.02 mm)
2 1/2SM
00:49
Overcast
Unknown Precip
30°F / -1°C 28°F / -2°C 93% 30.04 in
(1017 mb)
SSE 18.4 mph
(SSE 30 kph)
0.03 in
(0.76 mm)
3SM
00:39
Overcast
Light Freezing Rain
30°F / -1°C 28°F / -2°C 93% 30.06 in
(1018 mb)
SSE 18.4 mph
(SSE 30 kph)
0.01 in
(0.25 mm)
5SM
Time Weather Temperature Dewpoint Humidity Pressure Winds Precip Visibility


Weather for websites

WeatherForYou.com, LLC is not responsible for any damages or problems caused by this service. Current weather conditions are obtained from the closest station including government and personal stations which may have varying degrees of accuracy. Weather forecasts are derived from the NOAA NDFD. Like all things, this site belongs to Jesus Christ... He just trusts me to maintain it. If you have any questions or comments email webmaster@weatherforyou.com

Copyright © 2014, WeatherForYou.com LLC. All rights reserved.